Location: Kott?ru
(16.6209°N, 80.6208°E)
Time: 00:56:18
(UTC+00:00)

Cosmos 2150 Rocket - Pass Details

Date: 18 September 2020
Orbit: 749 x 808 km, 74.0° (Epoch: 26 October)

Event Time Altitude Azimuth Distance (km) Brightness Sun altitude
Rises 13:35:32 0° 183° (S) 3,221 7.2 -14.9°
Reaches altitude 10° 13:37:55 10° 179° (S) 2,305 6.4 -15.4°
Maximum altitude 13:43:02 56° 102° (ESE) 921 4.0 -16.6°
Drops below altitude 10° 13:48:15 10° 24° (NNE) 2,348 6.3 -17.9°
Sets 13:50:41 0° 20° (NNE) 3,286 7.1 -18.5°
